Index of /20260503/WXO-DD/model_caps/3km/12/048
Name Last modified Size Description
Parent Directory -
20260503T12Z_MSC_CAPS_AbsoluteVorticity_IsbL-0250_RLatLon0.03_PT048H.grib2 2026-05-03 18:21 884K
20260503T12Z_MSC_CAPS_AbsoluteVorticity_IsbL-0500_RLatLon0.03_PT048H.grib2 2026-05-03 18:21 1.1M
20260503T12Z_MSC_CAPS_AbsoluteVorticity_IsbL-0700_RLatLon0.03_PT048H.grib2 2026-05-03 18:21 1.1M
20260503T12Z_MSC_CAPS_AbsoluteVorticity_IsbL-0850_RLatLon0.03_PT048H.grib2 2026-05-03 18:21 1.3M
20260503T12Z_MSC_CAPS_AbsoluteVorticity_IsbL-1000_RLatLon0.03_PT048H.grib2 2026-05-03 18:21 1.4M
20260503T12Z_MSC_CAPS_AirDensity_AGL-120m_RLatLon0.03_PT048H.grib2 2026-05-03 18:21 1.4M
20260503T12Z_MSC_CAPS_AirDensity_AGL-40m_RLatLon0.03_PT048H.grib2 2026-05-03 18:21 1.4M
20260503T12Z_MSC_CAPS_AirDensity_AGL-80m_RLatLon0.03_PT048H.grib2 2026-05-03 18:21 1.4M
20260503T12Z_MSC_CAPS_AirTemp_AGL-120m_RLatLon0.03_PT048H.grib2 2026-05-03 18:21 1.4M
20260503T12Z_MSC_CAPS_AirTemp_AGL-2m_RLatLon0.03_PT048H.grib2 2026-05-03 18:21 1.7M
20260503T12Z_MSC_CAPS_AirTemp_AGL-40m_RLatLon0.03_PT048H.grib2 2026-05-03 18:21 1.5M
20260503T12Z_MSC_CAPS_AirTemp_AGL-80m_RLatLon0.03_PT048H.grib2 2026-05-03 18:21 1.4M
20260503T12Z_MSC_CAPS_AirTemp_IsbL-0050_RLatLon0.03_PT048H.grib2 2026-05-03 18:21 688K
20260503T12Z_MSC_CAPS_AirTemp_IsbL-0100_RLatLon0.03_PT048H.grib2 2026-05-03 18:21 952K
20260503T12Z_MSC_CAPS_AirTemp_IsbL-0150_RLatLon0.03_PT048H.grib2 2026-05-03 18:21 743K
20260503T12Z_MSC_CAPS_AirTemp_IsbL-0175_RLatLon0.03_PT048H.grib2 2026-05-03 18:21 769K
20260503T12Z_MSC_CAPS_AirTemp_IsbL-0200_RLatLon0.03_PT048H.grib2 2026-05-03 18:21 790K
20260503T12Z_MSC_CAPS_AirTemp_IsbL-0225_RLatLon0.03_PT048H.grib2 2026-05-03 18:21 788K
20260503T12Z_MSC_CAPS_AirTemp_IsbL-0250_RLatLon0.03_PT048H.grib2 2026-05-03 18:21 1.0M
20260503T12Z_MSC_CAPS_AirTemp_IsbL-0275_RLatLon0.03_PT048H.grib2 2026-05-03 18:21 1.0M
20260503T12Z_MSC_CAPS_AirTemp_IsbL-0300_RLatLon0.03_PT048H.grib2 2026-05-03 18:21 1.0M
20260503T12Z_MSC_CAPS_AirTemp_IsbL-0350_RLatLon0.03_PT048H.grib2 2026-05-03 18:21 747K
20260503T12Z_MSC_CAPS_AirTemp_IsbL-0400_RLatLon0.03_PT048H.grib2 2026-05-03 18:21 756K
20260503T12Z_MSC_CAPS_AirTemp_IsbL-0450_RLatLon0.03_PT048H.grib2 2026-05-03 18:21 776K
20260503T12Z_MSC_CAPS_AirTemp_IsbL-0500_RLatLon0.03_PT048H.grib2 2026-05-03 18:21 795K
20260503T12Z_MSC_CAPS_AirTemp_IsbL-0550_RLatLon0.03_PT048H.grib2 2026-05-03 18:21 804K
20260503T12Z_MSC_CAPS_AirTemp_IsbL-0600_RLatLon0.03_PT048H.grib2 2026-05-03 18:21 1.0M
20260503T12Z_MSC_CAPS_AirTemp_IsbL-0650_RLatLon0.03_PT048H.grib2 2026-05-03 18:21 1.0M
20260503T12Z_MSC_CAPS_AirTemp_IsbL-0700_RLatLon0.03_PT048H.grib2 2026-05-03 18:21 1.0M
20260503T12Z_MSC_CAPS_AirTemp_IsbL-0750_RLatLon0.03_PT048H.grib2 2026-05-03 18:21 1.0M
20260503T12Z_MSC_CAPS_AirTemp_IsbL-0800_RLatLon0.03_PT048H.grib2 2026-05-03 18:21 1.1M
20260503T12Z_MSC_CAPS_AirTemp_IsbL-0850_RLatLon0.03_PT048H.grib2 2026-05-03 18:21 1.1M
20260503T12Z_MSC_CAPS_AirTemp_IsbL-0875_RLatLon0.03_PT048H.grib2 2026-05-03 18:21 1.1M
20260503T12Z_MSC_CAPS_AirTemp_IsbL-0900_RLatLon0.03_PT048H.grib2 2026-05-03 18:21 1.1M
20260503T12Z_MSC_CAPS_AirTemp_IsbL-0925_RLatLon0.03_PT048H.grib2 2026-05-03 18:21 1.2M
20260503T12Z_MSC_CAPS_AirTemp_IsbL-0950_RLatLon0.03_PT048H.grib2 2026-05-03 18:21 1.1M
20260503T12Z_MSC_CAPS_AirTemp_IsbL-0970_RLatLon0.03_PT048H.grib2 2026-05-03 18:21 1.1M
20260503T12Z_MSC_CAPS_AirTemp_IsbL-0985_RLatLon0.03_PT048H.grib2 2026-05-03 18:21 1.0M
20260503T12Z_MSC_CAPS_AirTemp_IsbL-1000_RLatLon0.03_PT048H.grib2 2026-05-03 18:21 1.0M
20260503T12Z_MSC_CAPS_AirTemp_IsbL-1015_RLatLon0.03_PT048H.grib2 2026-05-03 18:21 1.1M
20260503T12Z_MSC_CAPS_Albedo_Sfc_RLatLon0.03_PT048H.grib2 2026-05-03 18:21 2.7M
20260503T12Z_MSC_CAPS_CAPE_Sfc_RLatLon0.03_PT048H.grib2 2026-05-03 18:21 194K
20260503T12Z_MSC_CAPS_CloudWater_EAtm_RLatLon0.03_PT048H.grib2 2026-05-03 18:21 1.6M
20260503T12Z_MSC_CAPS_ConvectivePrecip-Accum_Sfc_RLatLon0.03_PT048H.grib2 2026-05-03 18:21 5.2M
20260503T12Z_MSC_CAPS_DewPointDepression_AGL-120m_RLatLon0.03_PT048H.grib2 2026-05-03 18:21 2.1M
20260503T12Z_MSC_CAPS_DewPointDepression_AGL-2m_RLatLon0.03_PT048H.grib2 2026-05-03 18:21 2.1M
20260503T12Z_MSC_CAPS_DewPointDepression_AGL-40m_RLatLon0.03_PT048H.grib2 2026-05-03 18:21 2.1M
20260503T12Z_MSC_CAPS_DewPointDepression_AGL-80m_RLatLon0.03_PT048H.grib2 2026-05-03 18:21 2.1M
20260503T12Z_MSC_CAPS_DewPointDepression_IsbL-0050_RLatLon0.03_PT048H.grib2 2026-05-03 18:21 3.2K
20260503T12Z_MSC_CAPS_DewPointDepression_IsbL-0100_RLatLon0.03_PT048H.grib2 2026-05-03 18:21 67K
20260503T12Z_MSC_CAPS_DewPointDepression_IsbL-0150_RLatLon0.03_PT048H.grib2 2026-05-03 18:21 81K
20260503T12Z_MSC_CAPS_DewPointDepression_IsbL-0175_RLatLon0.03_PT048H.grib2 2026-05-03 18:21 215K
20260503T12Z_MSC_CAPS_DewPointDepression_IsbL-0200_RLatLon0.03_PT048H.grib2 2026-05-03 18:21 387K
20260503T12Z_MSC_CAPS_DewPointDepression_IsbL-0225_RLatLon0.03_PT048H.grib2 2026-05-03 18:21 634K
20260503T12Z_MSC_CAPS_DewPointDepression_IsbL-0250_RLatLon0.03_PT048H.grib2 2026-05-03 18:21 871K
20260503T12Z_MSC_CAPS_DewPointDepression_IsbL-0275_RLatLon0.03_PT048H.grib2 2026-05-03 18:21 1.0M
20260503T12Z_MSC_CAPS_DewPointDepression_IsbL-0300_RLatLon0.03_PT048H.grib2 2026-05-03 18:21 1.0M
20260503T12Z_MSC_CAPS_DewPointDepression_IsbL-0350_RLatLon0.03_PT048H.grib2 2026-05-03 18:21 1.1M
20260503T12Z_MSC_CAPS_DewPointDepression_IsbL-0400_RLatLon0.03_PT048H.grib2 2026-05-03 18:21 1.1M
20260503T12Z_MSC_CAPS_DewPointDepression_IsbL-0450_RLatLon0.03_PT048H.grib2 2026-05-03 18:21 1.2M
20260503T12Z_MSC_CAPS_DewPointDepression_IsbL-0500_RLatLon0.03_PT048H.grib2 2026-05-03 18:21 1.2M
20260503T12Z_MSC_CAPS_DewPointDepression_IsbL-0550_RLatLon0.03_PT048H.grib2 2026-05-03 18:21 1.2M
20260503T12Z_MSC_CAPS_DewPointDepression_IsbL-0600_RLatLon0.03_PT048H.grib2 2026-05-03 18:21 1.3M
20260503T12Z_MSC_CAPS_DewPointDepression_IsbL-0650_RLatLon0.03_PT048H.grib2 2026-05-03 18:21 1.3M
20260503T12Z_MSC_CAPS_DewPointDepression_IsbL-0700_RLatLon0.03_PT048H.grib2 2026-05-03 18:21 1.3M
20260503T12Z_MSC_CAPS_DewPointDepression_IsbL-0750_RLatLon0.03_PT048H.grib2 2026-05-03 18:21 1.4M
20260503T12Z_MSC_CAPS_DewPointDepression_IsbL-0800_RLatLon0.03_PT048H.grib2 2026-05-03 18:21 1.3M
20260503T12Z_MSC_CAPS_DewPointDepression_IsbL-0850_RLatLon0.03_PT048H.grib2 2026-05-03 18:21 1.3M
20260503T12Z_MSC_CAPS_DewPointDepression_IsbL-0875_RLatLon0.03_PT048H.grib2 2026-05-03 18:21 1.4M
20260503T12Z_MSC_CAPS_DewPointDepression_IsbL-0900_RLatLon0.03_PT048H.grib2 2026-05-03 18:21 1.4M
20260503T12Z_MSC_CAPS_DewPointDepression_IsbL-0925_RLatLon0.03_PT048H.grib2 2026-05-03 18:21 1.4M
20260503T12Z_MSC_CAPS_DewPointDepression_IsbL-0950_RLatLon0.03_PT048H.grib2 2026-05-03 18:21 1.4M
20260503T12Z_MSC_CAPS_DewPointDepression_IsbL-0970_RLatLon0.03_PT048H.grib2 2026-05-03 18:21 1.4M
20260503T12Z_MSC_CAPS_DewPointDepression_IsbL-0985_RLatLon0.03_PT048H.grib2 2026-05-03 18:21 1.4M
20260503T12Z_MSC_CAPS_DewPointDepression_IsbL-1000_RLatLon0.03_PT048H.grib2 2026-05-03 18:21 1.4M
20260503T12Z_MSC_CAPS_DewPointDepression_IsbL-1015_RLatLon0.03_PT048H.grib2 2026-05-03 18:21 1.3M
20260503T12Z_MSC_CAPS_DewPoint_AGL-120m_RLatLon0.03_PT048H.grib2 2026-05-03 18:21 3.6M
20260503T12Z_MSC_CAPS_DewPoint_AGL-2m_RLatLon0.03_PT048H.grib2 2026-05-03 18:21 2.2M
20260503T12Z_MSC_CAPS_DewPoint_AGL-40m_RLatLon0.03_PT048H.grib2 2026-05-03 18:21 3.7M
20260503T12Z_MSC_CAPS_DewPoint_AGL-80m_RLatLon0.03_PT048H.grib2 2026-05-03 18:21 3.7M
20260503T12Z_MSC_CAPS_DownwardLongwaveRadiationFlux-Accum_Sfc_RLatLon0.03_PT048H.grib2 2026-05-03 18:21 2.0M
20260503T12Z_MSC_CAPS_DownwardShortwaveRadiationFlux-Accum_NTAtm_RLatLon0.03_PT048H.grib2 2026-05-03 18:21 535K
20260503T12Z_MSC_CAPS_DownwardShortwaveRadiationFlux-Accum_Sfc_RLatLon0.03_PT048H.grib2 2026-05-03 18:21 3.0M
20260503T12Z_MSC_CAPS_FreezingRain-Accum_Sfc_RLatLon0.03_PT048H.grib2 2026-05-03 18:21 968K
20260503T12Z_MSC_CAPS_GeopotentialHeight_IsbL-0050_RLatLon0.03_PT048H.grib2 2026-05-03 18:21 630K
20260503T12Z_MSC_CAPS_GeopotentialHeight_IsbL-0100_RLatLon0.03_PT048H.grib2 2026-05-03 18:21 826K
20260503T12Z_MSC_CAPS_GeopotentialHeight_IsbL-0150_RLatLon0.03_PT048H.grib2 2026-05-03 18:21 613K
20260503T12Z_MSC_CAPS_GeopotentialHeight_IsbL-0175_RLatLon0.03_PT048H.grib2 2026-05-03 18:21 727K
20260503T12Z_MSC_CAPS_GeopotentialHeight_IsbL-0200_RLatLon0.03_PT048H.grib2 2026-05-03 18:21 744K
20260503T12Z_MSC_CAPS_GeopotentialHeight_IsbL-0225_RLatLon0.03_PT048H.grib2 2026-05-03 18:21 759K
20260503T12Z_MSC_CAPS_GeopotentialHeight_IsbL-0250_RLatLon0.03_PT048H.grib2 2026-05-03 18:21 768K
20260503T12Z_MSC_CAPS_GeopotentialHeight_IsbL-0275_RLatLon0.03_PT048H.grib2 2026-05-03 18:21 775K
20260503T12Z_MSC_CAPS_GeopotentialHeight_IsbL-0300_RLatLon0.03_PT048H.grib2 2026-05-03 18:21 780K
20260503T12Z_MSC_CAPS_GeopotentialHeight_IsbL-0350_RLatLon0.03_PT048H.grib2 2026-05-03 18:21 785K
20260503T12Z_MSC_CAPS_GeopotentialHeight_IsbL-0400_RLatLon0.03_PT048H.grib2 2026-05-03 18:21 779K
20260503T12Z_MSC_CAPS_GeopotentialHeight_IsbL-0450_RLatLon0.03_PT048H.grib2 2026-05-03 18:21 771K
20260503T12Z_MSC_CAPS_GeopotentialHeight_IsbL-0500_RLatLon0.03_PT048H.grib2 2026-05-03 18:21 765K
20260503T12Z_MSC_CAPS_GeopotentialHeight_IsbL-0550_RLatLon0.03_PT048H.grib2 2026-05-03 18:21 646K
20260503T12Z_MSC_CAPS_GeopotentialHeight_IsbL-0600_RLatLon0.03_PT048H.grib2 2026-05-03 18:21 806K
20260503T12Z_MSC_CAPS_GeopotentialHeight_IsbL-0650_RLatLon0.03_PT048H.grib2 2026-05-03 18:21 812K
20260503T12Z_MSC_CAPS_GeopotentialHeight_IsbL-0700_RLatLon0.03_PT048H.grib2 2026-05-03 18:21 814K
20260503T12Z_MSC_CAPS_GeopotentialHeight_IsbL-0750_RLatLon0.03_PT048H.grib2 2026-05-03 18:21 895K
20260503T12Z_MSC_CAPS_GeopotentialHeight_IsbL-0800_RLatLon0.03_PT048H.grib2 2026-05-03 18:21 830K
20260503T12Z_MSC_CAPS_GeopotentialHeight_IsbL-0850_RLatLon0.03_PT048H.grib2 2026-05-03 18:21 839K
20260503T12Z_MSC_CAPS_GeopotentialHeight_IsbL-0875_RLatLon0.03_PT048H.grib2 2026-05-03 18:21 844K
20260503T12Z_MSC_CAPS_GeopotentialHeight_IsbL-0900_RLatLon0.03_PT048H.grib2 2026-05-03 18:21 849K
20260503T12Z_MSC_CAPS_GeopotentialHeight_IsbL-0925_RLatLon0.03_PT048H.grib2 2026-05-03 18:21 842K
20260503T12Z_MSC_CAPS_GeopotentialHeight_IsbL-0950_RLatLon0.03_PT048H.grib2 2026-05-03 18:21 676K
20260503T12Z_MSC_CAPS_GeopotentialHeight_IsbL-0970_RLatLon0.03_PT048H.grib2 2026-05-03 18:21 685K
20260503T12Z_MSC_CAPS_GeopotentialHeight_IsbL-0985_RLatLon0.03_PT048H.grib2 2026-05-03 18:21 689K
20260503T12Z_MSC_CAPS_GeopotentialHeight_IsbL-1000_RLatLon0.03_PT048H.grib2 2026-05-03 18:21 695K
20260503T12Z_MSC_CAPS_GeopotentialHeight_IsbL-1015_RLatLon0.03_PT048H.grib2 2026-05-03 18:21 702K
20260503T12Z_MSC_CAPS_GeopotentialHeight_Sfc_RLatLon0.03_PT048H.grib2 2026-05-03 18:21 1.0M
20260503T12Z_MSC_CAPS_IcePellets-Accum_Sfc_RLatLon0.03_PT048H.grib2 2026-05-03 18:21 88K
20260503T12Z_MSC_CAPS_LatentHeatNetFlux_Sfc_RLatLon0.03_PT048H.grib2 2026-05-03 18:21 1.8M
20260503T12Z_MSC_CAPS_LiftedIndex-MU-VT_IsbL-0500_RLatLon0.03_PT048H.grib2 2026-05-03 18:21 3.4M
20260503T12Z_MSC_CAPS_MixedLayerThickness_Sfc_RLatLon0.03_PT048H.nc 2026-05-03 18:13 16M
20260503T12Z_MSC_CAPS_NetLongwaveRadiationFlux-Accum_Sfc_RLatLon0.03_PT048H.grib2 2026-05-03 18:21 2.9M
20260503T12Z_MSC_CAPS_NetShortwaveRadiationFlux-Accum_Sfc_RLatLon0.03_PT048H.grib2 2026-05-03 18:21 2.9M
20260503T12Z_MSC_CAPS_PlanetaryBoundaryLayerHeight_Sfc_RLatLon0.03_PT048H.grib2 2026-05-03 18:21 2.5M
20260503T12Z_MSC_CAPS_Precip-Accum_Sfc_RLatLon0.03_PT048H.grib2 2026-05-03 18:21 5.8M
20260503T12Z_MSC_CAPS_PrecipRate_Sfc_RLatLon0.03_PT048H.grib2 2026-05-03 18:21 497K
20260503T12Z_MSC_CAPS_PrecipType-Instant_Sfc_RLatLon0.03_PT048H.grib2 2026-05-03 18:21 2.1M
20260503T12Z_MSC_CAPS_Pressure_MSL_RLatLon0.03_PT048H.grib2 2026-05-03 18:21 928K
20260503T12Z_MSC_CAPS_Pressure_Sfc_RLatLon0.03_PT048H.grib2 2026-05-03 18:21 1.2M
20260503T12Z_MSC_CAPS_RadiativeTemp_Sfc_RLatLon0.03_PT048H.grib2 2026-05-03 18:21 2.1M
20260503T12Z_MSC_CAPS_Rain-Accum_Sfc_RLatLon0.03_PT048H.grib2 2026-05-03 18:21 2.9M
20260503T12Z_MSC_CAPS_RelativeHumidity_AGL-120m_RLatLon0.03_PT048H.grib2 2026-05-03 18:21 2.8M
20260503T12Z_MSC_CAPS_RelativeHumidity_AGL-2m_RLatLon0.03_PT048H.grib2 2026-05-03 18:21 2.9M
20260503T12Z_MSC_CAPS_RelativeHumidity_AGL-40m_RLatLon0.03_PT048H.grib2 2026-05-03 18:21 2.9M
20260503T12Z_MSC_CAPS_RelativeHumidity_AGL-80m_RLatLon0.03_PT048H.grib2 2026-05-03 18:21 2.8M
20260503T12Z_MSC_CAPS_RelativeHumidity_IsbL-0050_RLatLon0.03_PT048H.grib2 2026-05-03 18:21 1.0M
20260503T12Z_MSC_CAPS_RelativeHumidity_IsbL-0100_RLatLon0.03_PT048H.grib2 2026-05-03 18:21 887K
20260503T12Z_MSC_CAPS_RelativeHumidity_IsbL-0150_RLatLon0.03_PT048H.grib2 2026-05-03 18:21 614K
20260503T12Z_MSC_CAPS_RelativeHumidity_IsbL-0175_RLatLon0.03_PT048H.grib2 2026-05-03 18:21 644K
20260503T12Z_MSC_CAPS_RelativeHumidity_IsbL-0200_RLatLon0.03_PT048H.grib2 2026-05-03 18:21 673K
20260503T12Z_MSC_CAPS_RelativeHumidity_IsbL-0225_RLatLon0.03_PT048H.grib2 2026-05-03 18:21 882K
20260503T12Z_MSC_CAPS_RelativeHumidity_IsbL-0250_RLatLon0.03_PT048H.grib2 2026-05-03 18:21 1.1M
20260503T12Z_MSC_CAPS_RelativeHumidity_IsbL-0275_RLatLon0.03_PT048H.grib2 2026-05-03 18:21 1.4M
20260503T12Z_MSC_CAPS_RelativeHumidity_IsbL-0300_RLatLon0.03_PT048H.grib2 2026-05-03 18:21 1.5M
20260503T12Z_MSC_CAPS_RelativeHumidity_IsbL-0350_RLatLon0.03_PT048H.grib2 2026-05-03 18:21 2.0M
20260503T12Z_MSC_CAPS_RelativeHumidity_IsbL-0400_RLatLon0.03_PT048H.grib2 2026-05-03 18:21 2.1M
20260503T12Z_MSC_CAPS_RelativeHumidity_IsbL-0450_RLatLon0.03_PT048H.grib2 2026-05-03 18:21 2.0M
20260503T12Z_MSC_CAPS_RelativeHumidity_IsbL-0500_RLatLon0.03_PT048H.grib2 2026-05-03 18:21 2.2M
20260503T12Z_MSC_CAPS_RelativeHumidity_IsbL-0550_RLatLon0.03_PT048H.grib2 2026-05-03 18:21 2.2M
20260503T12Z_MSC_CAPS_RelativeHumidity_IsbL-0600_RLatLon0.03_PT048H.grib2 2026-05-03 18:21 2.2M
20260503T12Z_MSC_CAPS_RelativeHumidity_IsbL-0650_RLatLon0.03_PT048H.grib2 2026-05-03 18:21 2.3M
20260503T12Z_MSC_CAPS_RelativeHumidity_IsbL-0700_RLatLon0.03_PT048H.grib2 2026-05-03 18:21 2.4M
20260503T12Z_MSC_CAPS_RelativeHumidity_IsbL-0750_RLatLon0.03_PT048H.grib2 2026-05-03 18:21 2.4M
20260503T12Z_MSC_CAPS_RelativeHumidity_IsbL-0800_RLatLon0.03_PT048H.grib2 2026-05-03 18:21 2.5M
20260503T12Z_MSC_CAPS_RelativeHumidity_IsbL-0850_RLatLon0.03_PT048H.grib2 2026-05-03 18:21 2.6M
20260503T12Z_MSC_CAPS_RelativeHumidity_IsbL-0875_RLatLon0.03_PT048H.grib2 2026-05-03 18:21 2.6M
20260503T12Z_MSC_CAPS_RelativeHumidity_IsbL-0900_RLatLon0.03_PT048H.grib2 2026-05-03 18:21 2.7M
20260503T12Z_MSC_CAPS_RelativeHumidity_IsbL-0925_RLatLon0.03_PT048H.grib2 2026-05-03 18:21 2.7M
20260503T12Z_MSC_CAPS_RelativeHumidity_IsbL-0950_RLatLon0.03_PT048H.grib2 2026-05-03 18:21 2.8M
20260503T12Z_MSC_CAPS_RelativeHumidity_IsbL-0970_RLatLon0.03_PT048H.grib2 2026-05-03 18:21 2.8M
20260503T12Z_MSC_CAPS_RelativeHumidity_IsbL-0985_RLatLon0.03_PT048H.grib2 2026-05-03 18:21 2.9M
20260503T12Z_MSC_CAPS_RelativeHumidity_IsbL-1000_RLatLon0.03_PT048H.grib2 2026-05-03 18:21 2.9M
20260503T12Z_MSC_CAPS_RelativeHumidity_IsbL-1015_RLatLon0.03_PT048H.grib2 2026-05-03 18:21 2.9M
20260503T12Z_MSC_CAPS_Runoff-Accum_Sfc_RLatLon0.03_PT048H.grib2 2026-05-03 18:21 354K
20260503T12Z_MSC_CAPS_SeaIceAreaFraction_Sfc_RLatLon0.03_PT048H.nc 2026-05-03 18:13 15M
20260503T12Z_MSC_CAPS_SeaIceCompressiveStrength_Sfc_RLatLon0.03_PT048H.nc 2026-05-03 18:13 15M
20260503T12Z_MSC_CAPS_SeaIceDivergence_Sfc_RLatLon0.03_PT048H.nc 2026-05-03 18:13 15M
20260503T12Z_MSC_CAPS_SeaIceInternalPressure_Sfc_RLatLon0.03_PT048H.nc 2026-05-03 18:13 15M
20260503T12Z_MSC_CAPS_SeaIceShear_Sfc_RLatLon0.03_PT048H.nc 2026-05-03 18:13 14M
20260503T12Z_MSC_CAPS_SeaIceSnowTemp_Sfc_RLatLon0.03_PT048H.nc 2026-05-03 18:13 14M
20260503T12Z_MSC_CAPS_SeaIceSnowVolume_Sfc_RLatLon0.03_PT048H.nc 2026-05-03 18:13 15M
20260503T12Z_MSC_CAPS_SeaIceVelocityX_Sfc_RLatLon0.03_PT048H.nc 2026-05-03 18:13 15M
20260503T12Z_MSC_CAPS_SeaIceVelocityY_Sfc_RLatLon0.03_PT048H.nc 2026-05-03 18:13 15M
20260503T12Z_MSC_CAPS_SeaIceVolume_Sfc_RLatLon0.03_PT048H.nc 2026-05-03 18:13 15M
20260503T12Z_MSC_CAPS_SeaSurfaceHeight_Sfc_RLatLon0.03_PT048H.nc 2026-05-03 18:13 16M
20260503T12Z_MSC_CAPS_SeaWaterSalinity_DBS-0.5m_RLatLon0.03_PT048H.nc 2026-05-03 18:13 16M
20260503T12Z_MSC_CAPS_SeaWaterSalinity_DBS-all_RLatLon0.03_PT048H.nc 2026-05-03 18:13 107M
20260503T12Z_MSC_CAPS_SeaWaterTemp_DBS-0.5m_RLatLon0.03_PT048H.nc 2026-05-03 18:13 14M
20260503T12Z_MSC_CAPS_SeaWaterTemp_DBS-all_RLatLon0.03_PT048H.nc 2026-05-03 18:13 88M
20260503T12Z_MSC_CAPS_SeaWaterVelocityX_DBS-0.5m_RLatLon0.03_PT048H.nc 2026-05-03 18:13 17M
20260503T12Z_MSC_CAPS_SeaWaterVelocityX_DBS-all_RLatLon0.03_PT048H.nc 2026-05-03 18:13 201M
20260503T12Z_MSC_CAPS_SeaWaterVelocityY_DBS-0.5m_RLatLon0.03_PT048H.nc 2026-05-03 18:13 17M
20260503T12Z_MSC_CAPS_SeaWaterVelocityY_DBS-all_RLatLon0.03_PT048H.nc 2026-05-03 18:13 213M
20260503T12Z_MSC_CAPS_SensibleHeatNetFlux_Sfc_RLatLon0.03_PT048H.grib2 2026-05-03 18:21 2.0M
20260503T12Z_MSC_CAPS_ShowalterIndex_IsbL-0500_RLatLon0.03_PT048H.grib2 2026-05-03 18:21 4.3M
20260503T12Z_MSC_CAPS_Snow-Accum_Sfc_RLatLon0.03_PT048H.grib2 2026-05-03 18:21 4.6M
20260503T12Z_MSC_CAPS_SnowDensity_Sfc_RLatLon0.03_PT048H.grib2 2026-05-03 18:21 1.3M
20260503T12Z_MSC_CAPS_SnowDepthWaterEquivalent_Sfc_RLatLon0.03_PT048H.grib2 2026-05-03 18:21 664K
20260503T12Z_MSC_CAPS_SnowDepth_Sfc_RLatLon0.03_PT048H.grib2 2026-05-03 18:21 1.1M
20260503T12Z_MSC_CAPS_SoilTemp_DBS-0to10cm_RLatLon0.03_PT048H.grib2 2026-05-03 18:21 1.7M
20260503T12Z_MSC_CAPS_SoilTemp_Sfc_RLatLon0.03_PT048H.grib2 2026-05-03 18:21 1.8M
20260503T12Z_MSC_CAPS_SoilVolumetricIceContent_Sfc_RLatLon0.03_PT048H.grib2 2026-05-03 18:21 1.4M
20260503T12Z_MSC_CAPS_SoilVolumetricWaterContent_DBS-0to10cm_RLatLon0.03_PT048H.grib2 2026-05-03 18:21 1.3M
20260503T12Z_MSC_CAPS_SoilVolumetricWaterContent_DBS-0to1cm_RLatLon0.03_PT048H.grib2 2026-05-03 18:21 1.8M
20260503T12Z_MSC_CAPS_SpecificHumidity_AGL-120m_RLatLon0.03_PT048H.grib2 2026-05-03 18:21 1.4M
20260503T12Z_MSC_CAPS_SpecificHumidity_AGL-2m_RLatLon0.03_PT048H.grib2 2026-05-03 18:21 1.7M
20260503T12Z_MSC_CAPS_SpecificHumidity_AGL-40m_RLatLon0.03_PT048H.grib2 2026-05-03 18:21 1.5M
20260503T12Z_MSC_CAPS_SpecificHumidity_AGL-80m_RLatLon0.03_PT048H.grib2 2026-05-03 18:21 1.4M
20260503T12Z_MSC_CAPS_SpecificHumidity_IsbL-0050_RLatLon0.03_PT048H.grib2 2026-05-03 18:21 946K
20260503T12Z_MSC_CAPS_SpecificHumidity_IsbL-0100_RLatLon0.03_PT048H.grib2 2026-05-03 18:21 1.1M
20260503T12Z_MSC_CAPS_SpecificHumidity_IsbL-0150_RLatLon0.03_PT048H.grib2 2026-05-03 18:21 808K
20260503T12Z_MSC_CAPS_SpecificHumidity_IsbL-0175_RLatLon0.03_PT048H.grib2 2026-05-03 18:21 1.0M
20260503T12Z_MSC_CAPS_SpecificHumidity_IsbL-0200_RLatLon0.03_PT048H.grib2 2026-05-03 18:21 911K
20260503T12Z_MSC_CAPS_SpecificHumidity_IsbL-0225_RLatLon0.03_PT048H.grib2 2026-05-03 18:21 1.1M
20260503T12Z_MSC_CAPS_SpecificHumidity_IsbL-0250_RLatLon0.03_PT048H.grib2 2026-05-03 18:21 1.1M
20260503T12Z_MSC_CAPS_SpecificHumidity_IsbL-0275_RLatLon0.03_PT048H.grib2 2026-05-03 18:21 1.1M
20260503T12Z_MSC_CAPS_SpecificHumidity_IsbL-0300_RLatLon0.03_PT048H.grib2 2026-05-03 18:21 1.0M
20260503T12Z_MSC_CAPS_SpecificHumidity_IsbL-0350_RLatLon0.03_PT048H.grib2 2026-05-03 18:21 1.0M
20260503T12Z_MSC_CAPS_SpecificHumidity_IsbL-0400_RLatLon0.03_PT048H.grib2 2026-05-03 18:21 1.3M
20260503T12Z_MSC_CAPS_SpecificHumidity_IsbL-0450_RLatLon0.03_PT048H.grib2 2026-05-03 18:21 1.1M
20260503T12Z_MSC_CAPS_SpecificHumidity_IsbL-0500_RLatLon0.03_PT048H.grib2 2026-05-03 18:21 1.5M
20260503T12Z_MSC_CAPS_SpecificHumidity_IsbL-0550_RLatLon0.03_PT048H.grib2 2026-05-03 18:21 1.3M
20260503T12Z_MSC_CAPS_SpecificHumidity_IsbL-0600_RLatLon0.03_PT048H.grib2 2026-05-03 18:21 1.4M
20260503T12Z_MSC_CAPS_SpecificHumidity_IsbL-0650_RLatLon0.03_PT048H.grib2 2026-05-03 18:21 1.5M
20260503T12Z_MSC_CAPS_SpecificHumidity_IsbL-0700_RLatLon0.03_PT048H.grib2 2026-05-03 18:21 1.3M
20260503T12Z_MSC_CAPS_SpecificHumidity_IsbL-0750_RLatLon0.03_PT048H.grib2 2026-05-03 18:21 1.5M
20260503T12Z_MSC_CAPS_SpecificHumidity_IsbL-0800_RLatLon0.03_PT048H.grib2 2026-05-03 18:21 1.6M
20260503T12Z_MSC_CAPS_SpecificHumidity_IsbL-0850_RLatLon0.03_PT048H.grib2 2026-05-03 18:21 1.8M
20260503T12Z_MSC_CAPS_SpecificHumidity_IsbL-0875_RLatLon0.03_PT048H.grib2 2026-05-03 18:21 1.8M
20260503T12Z_MSC_CAPS_SpecificHumidity_IsbL-0900_RLatLon0.03_PT048H.grib2 2026-05-03 18:21 1.5M
20260503T12Z_MSC_CAPS_SpecificHumidity_IsbL-0925_RLatLon0.03_PT048H.grib2 2026-05-03 18:21 1.5M
20260503T12Z_MSC_CAPS_SpecificHumidity_IsbL-0950_RLatLon0.03_PT048H.grib2 2026-05-03 18:21 1.6M
20260503T12Z_MSC_CAPS_SpecificHumidity_IsbL-0970_RLatLon0.03_PT048H.grib2 2026-05-03 18:21 1.6M
20260503T12Z_MSC_CAPS_SpecificHumidity_IsbL-0985_RLatLon0.03_PT048H.grib2 2026-05-03 18:21 1.7M
20260503T12Z_MSC_CAPS_SpecificHumidity_IsbL-1000_RLatLon0.03_PT048H.grib2 2026-05-03 18:21 1.7M
20260503T12Z_MSC_CAPS_SpecificHumidity_IsbL-1015_RLatLon0.03_PT048H.grib2 2026-05-03 18:21 1.7M
20260503T12Z_MSC_CAPS_SpecificHumidity_Sfc_RLatLon0.03_PT048H.grib2 2026-05-03 18:21 2.0M
20260503T12Z_MSC_CAPS_StormRelativeHelicity_Sfc_RLatLon0.03_PT048H.grib2 2026-05-03 18:21 3.3M
20260503T12Z_MSC_CAPS_Thickness_IsbL-1000to0500_RLatLon0.03_PT048H.grib2 2026-05-03 18:21 473K
20260503T12Z_MSC_CAPS_TotalCloudCover_Sfc_RLatLon0.03_PT048H.grib2 2026-05-03 18:21 3.6M
20260503T12Z_MSC_CAPS_TurboclineDepth_Sfc_RLatLon0.03_PT048H.nc 2026-05-03 18:13 16M
20260503T12Z_MSC_CAPS_UpwardLongwaveRadiationFlux_NTAtm_RLatLon0.03_PT048H.grib2 2026-05-03 18:21 2.9M
20260503T12Z_MSC_CAPS_UpwardShortwaveRadiationFlux_NTAtm_RLatLon0.03_PT048H.grib2 2026-05-03 18:21 2.2M
20260503T12Z_MSC_CAPS_VerticalVelocity_IsbL-0250_RLatLon0.03_PT048H.grib2 2026-05-03 18:21 909K
20260503T12Z_MSC_CAPS_VerticalVelocity_IsbL-0500_RLatLon0.03_PT048H.grib2 2026-05-03 18:21 898K
20260503T12Z_MSC_CAPS_VerticalVelocity_IsbL-0700_RLatLon0.03_PT048H.grib2 2026-05-03 18:21 1.0M
20260503T12Z_MSC_CAPS_VerticalVelocity_IsbL-0850_RLatLon0.03_PT048H.grib2 2026-05-03 18:21 1.2M
20260503T12Z_MSC_CAPS_VerticalVelocity_IsbL-1000_RLatLon0.03_PT048H.grib2 2026-05-03 18:21 1.1M
20260503T12Z_MSC_CAPS_WindDir_AGL-10m_RLatLon0.03_PT048H.grib2 2026-05-03 18:21 2.4M
20260503T12Z_MSC_CAPS_WindDir_AGL-120m_RLatLon0.03_PT048H.grib2 2026-05-03 18:21 1.2M
20260503T12Z_MSC_CAPS_WindDir_AGL-40m_RLatLon0.03_PT048H.grib2 2026-05-03 18:21 1.4M
20260503T12Z_MSC_CAPS_WindDir_AGL-80m_RLatLon0.03_PT048H.grib2 2026-05-03 18:21 1.3M
20260503T12Z_MSC_CAPS_WindDir_IsbL-0050_RLatLon0.03_PT048H.grib2 2026-05-03 18:21 1.1M
20260503T12Z_MSC_CAPS_WindDir_IsbL-0100_RLatLon0.03_PT048H.grib2 2026-05-03 18:21 1.1M
20260503T12Z_MSC_CAPS_WindDir_IsbL-0150_RLatLon0.03_PT048H.grib2 2026-05-03 18:21 1.0M
20260503T12Z_MSC_CAPS_WindDir_IsbL-0175_RLatLon0.03_PT048H.grib2 2026-05-03 18:21 1.1M
20260503T12Z_MSC_CAPS_WindDir_IsbL-0200_RLatLon0.03_PT048H.grib2 2026-05-03 18:21 1.2M
20260503T12Z_MSC_CAPS_WindDir_IsbL-0225_RLatLon0.03_PT048H.grib2 2026-05-03 18:21 1.1M
20260503T12Z_MSC_CAPS_WindDir_IsbL-0250_RLatLon0.03_PT048H.grib2 2026-05-03 18:21 1.1M
20260503T12Z_MSC_CAPS_WindDir_IsbL-0275_RLatLon0.03_PT048H.grib2 2026-05-03 18:21 1.1M
20260503T12Z_MSC_CAPS_WindDir_IsbL-0300_RLatLon0.03_PT048H.grib2 2026-05-03 18:21 1.1M
20260503T12Z_MSC_CAPS_WindDir_IsbL-0350_RLatLon0.03_PT048H.grib2 2026-05-03 18:21 1.1M
20260503T12Z_MSC_CAPS_WindDir_IsbL-0400_RLatLon0.03_PT048H.grib2 2026-05-03 18:21 1.1M
20260503T12Z_MSC_CAPS_WindDir_IsbL-0450_RLatLon0.03_PT048H.grib2 2026-05-03 18:21 1.2M
20260503T12Z_MSC_CAPS_WindDir_IsbL-0500_RLatLon0.03_PT048H.grib2 2026-05-03 18:21 1.2M
20260503T12Z_MSC_CAPS_WindDir_IsbL-0550_RLatLon0.03_PT048H.grib2 2026-05-03 18:21 1.3M
20260503T12Z_MSC_CAPS_WindDir_IsbL-0600_RLatLon0.03_PT048H.grib2 2026-05-03 18:21 1.3M
20260503T12Z_MSC_CAPS_WindDir_IsbL-0650_RLatLon0.03_PT048H.grib2 2026-05-03 18:21 1.4M
20260503T12Z_MSC_CAPS_WindDir_IsbL-0700_RLatLon0.03_PT048H.grib2 2026-05-03 18:21 1.5M
20260503T12Z_MSC_CAPS_WindDir_IsbL-0750_RLatLon0.03_PT048H.grib2 2026-05-03 18:21 1.5M
20260503T12Z_MSC_CAPS_WindDir_IsbL-0800_RLatLon0.03_PT048H.grib2 2026-05-03 18:21 1.7M
20260503T12Z_MSC_CAPS_WindDir_IsbL-0850_RLatLon0.03_PT048H.grib2 2026-05-03 18:21 1.8M
20260503T12Z_MSC_CAPS_WindDir_IsbL-0875_RLatLon0.03_PT048H.grib2 2026-05-03 18:21 1.8M
20260503T12Z_MSC_CAPS_WindDir_IsbL-0900_RLatLon0.03_PT048H.grib2 2026-05-03 18:21 1.9M
20260503T12Z_MSC_CAPS_WindDir_IsbL-0925_RLatLon0.03_PT048H.grib2 2026-05-03 18:21 2.0M
20260503T12Z_MSC_CAPS_WindDir_IsbL-0950_RLatLon0.03_PT048H.grib2 2026-05-03 18:21 2.1M
20260503T12Z_MSC_CAPS_WindDir_IsbL-0970_RLatLon0.03_PT048H.grib2 2026-05-03 18:21 2.1M
20260503T12Z_MSC_CAPS_WindDir_IsbL-0985_RLatLon0.03_PT048H.grib2 2026-05-03 18:21 2.2M
20260503T12Z_MSC_CAPS_WindDir_IsbL-1000_RLatLon0.03_PT048H.grib2 2026-05-03 18:21 2.3M
20260503T12Z_MSC_CAPS_WindDir_IsbL-1015_RLatLon0.03_PT048H.grib2 2026-05-03 18:21 2.4M
20260503T12Z_MSC_CAPS_WindGust-Max_AGL-10m_RLatLon0.03_PT048H.grib2 2026-05-03 18:21 2.4M
20260503T12Z_MSC_CAPS_WindGust-Min_AGL-10m_RLatLon0.03_PT048H.grib2 2026-05-03 18:21 2.4M
20260503T12Z_MSC_CAPS_WindGust_AGL-10m_RLatLon0.03_PT048H.grib2 2026-05-03 18:21 2.6M
20260503T12Z_MSC_CAPS_WindSpeed_AGL-10m_RLatLon0.03_PT048H.grib2 2026-05-03 18:21 2.2M
20260503T12Z_MSC_CAPS_WindSpeed_AGL-120m_RLatLon0.03_PT048H.grib2 2026-05-03 18:21 1.2M
20260503T12Z_MSC_CAPS_WindSpeed_AGL-40m_RLatLon0.03_PT048H.grib2 2026-05-03 18:21 1.3M
20260503T12Z_MSC_CAPS_WindSpeed_AGL-80m_RLatLon0.03_PT048H.grib2 2026-05-03 18:21 1.2M
20260503T12Z_MSC_CAPS_WindSpeed_IsbL-0050_RLatLon0.03_PT048H.grib2 2026-05-03 18:21 955K
20260503T12Z_MSC_CAPS_WindSpeed_IsbL-0100_RLatLon0.03_PT048H.grib2 2026-05-03 18:21 1.0M
20260503T12Z_MSC_CAPS_WindSpeed_IsbL-0150_RLatLon0.03_PT048H.grib2 2026-05-03 18:21 1.0M
20260503T12Z_MSC_CAPS_WindSpeed_IsbL-0175_RLatLon0.03_PT048H.grib2 2026-05-03 18:21 1.1M
20260503T12Z_MSC_CAPS_WindSpeed_IsbL-0200_RLatLon0.03_PT048H.grib2 2026-05-03 18:21 1.2M
20260503T12Z_MSC_CAPS_WindSpeed_IsbL-0225_RLatLon0.03_PT048H.grib2 2026-05-03 18:21 953K
20260503T12Z_MSC_CAPS_WindSpeed_IsbL-0250_RLatLon0.03_PT048H.grib2 2026-05-03 18:21 969K
20260503T12Z_MSC_CAPS_WindSpeed_IsbL-0275_RLatLon0.03_PT048H.grib2 2026-05-03 18:21 973K
20260503T12Z_MSC_CAPS_WindSpeed_IsbL-0300_RLatLon0.03_PT048H.grib2 2026-05-03 18:21 1.0M
20260503T12Z_MSC_CAPS_WindSpeed_IsbL-0350_RLatLon0.03_PT048H.grib2 2026-05-03 18:21 1.0M
20260503T12Z_MSC_CAPS_WindSpeed_IsbL-0400_RLatLon0.03_PT048H.grib2 2026-05-03 18:21 1.0M
20260503T12Z_MSC_CAPS_WindSpeed_IsbL-0450_RLatLon0.03_PT048H.grib2 2026-05-03 18:21 1.0M
20260503T12Z_MSC_CAPS_WindSpeed_IsbL-0500_RLatLon0.03_PT048H.grib2 2026-05-03 18:21 1.4M
20260503T12Z_MSC_CAPS_WindSpeed_IsbL-0550_RLatLon0.03_PT048H.grib2 2026-05-03 18:21 1.4M
20260503T12Z_MSC_CAPS_WindSpeed_IsbL-0600_RLatLon0.03_PT048H.grib2 2026-05-03 18:21 1.4M
20260503T12Z_MSC_CAPS_WindSpeed_IsbL-0650_RLatLon0.03_PT048H.grib2 2026-05-03 18:21 1.4M
20260503T12Z_MSC_CAPS_WindSpeed_IsbL-0700_RLatLon0.03_PT048H.grib2 2026-05-03 18:21 1.5M
20260503T12Z_MSC_CAPS_WindSpeed_IsbL-0750_RLatLon0.03_PT048H.grib2 2026-05-03 18:21 1.5M
20260503T12Z_MSC_CAPS_WindSpeed_IsbL-0800_RLatLon0.03_PT048H.grib2 2026-05-03 18:21 1.7M
20260503T12Z_MSC_CAPS_WindSpeed_IsbL-0850_RLatLon0.03_PT048H.grib2 2026-05-03 18:21 1.8M
20260503T12Z_MSC_CAPS_WindSpeed_IsbL-0875_RLatLon0.03_PT048H.grib2 2026-05-03 18:21 1.8M
20260503T12Z_MSC_CAPS_WindSpeed_IsbL-0900_RLatLon0.03_PT048H.grib2 2026-05-03 18:21 1.9M
20260503T12Z_MSC_CAPS_WindSpeed_IsbL-0925_RLatLon0.03_PT048H.grib2 2026-05-03 18:21 1.9M
20260503T12Z_MSC_CAPS_WindSpeed_IsbL-0950_RLatLon0.03_PT048H.grib2 2026-05-03 18:21 2.0M
20260503T12Z_MSC_CAPS_WindSpeed_IsbL-0970_RLatLon0.03_PT048H.grib2 2026-05-03 18:21 2.1M
20260503T12Z_MSC_CAPS_WindSpeed_IsbL-0985_RLatLon0.03_PT048H.grib2 2026-05-03 18:21 2.1M
20260503T12Z_MSC_CAPS_WindSpeed_IsbL-1000_RLatLon0.03_PT048H.grib2 2026-05-03 18:21 2.1M
20260503T12Z_MSC_CAPS_WindSpeed_IsbL-1015_RLatLon0.03_PT048H.grib2 2026-05-03 18:21 2.1M
20260503T12Z_MSC_CAPS_WindU_AGL-10m_RLatLon0.03_PT048H.grib2 2026-05-03 18:21 1.9M
20260503T12Z_MSC_CAPS_WindU_AGL-120m_RLatLon0.03_PT048H.grib2 2026-05-03 18:21 932K
20260503T12Z_MSC_CAPS_WindU_AGL-40m_RLatLon0.03_PT048H.grib2 2026-05-03 18:21 1.3M
20260503T12Z_MSC_CAPS_WindU_AGL-80m_RLatLon0.03_PT048H.grib2 2026-05-03 18:21 1.2M
20260503T12Z_MSC_CAPS_WindU_IsbL-0050_RLatLon0.03_PT048H.grib2 2026-05-03 18:21 941K
20260503T12Z_MSC_CAPS_WindU_IsbL-0100_RLatLon0.03_PT048H.grib2 2026-05-03 18:21 966K
20260503T12Z_MSC_CAPS_WindU_IsbL-0150_RLatLon0.03_PT048H.grib2 2026-05-03 18:21 921K
20260503T12Z_MSC_CAPS_WindU_IsbL-0175_RLatLon0.03_PT048H.grib2 2026-05-03 18:21 730K
20260503T12Z_MSC_CAPS_WindU_IsbL-0200_RLatLon0.03_PT048H.grib2 2026-05-03 18:21 877K
20260503T12Z_MSC_CAPS_WindU_IsbL-0225_RLatLon0.03_PT048H.grib2 2026-05-03 18:21 897K
20260503T12Z_MSC_CAPS_WindU_IsbL-0250_RLatLon0.03_PT048H.grib2 2026-05-03 18:21 912K
20260503T12Z_MSC_CAPS_WindU_IsbL-0275_RLatLon0.03_PT048H.grib2 2026-05-03 18:21 920K
20260503T12Z_MSC_CAPS_WindU_IsbL-0300_RLatLon0.03_PT048H.grib2 2026-05-03 18:21 926K
20260503T12Z_MSC_CAPS_WindU_IsbL-0350_RLatLon0.03_PT048H.grib2 2026-05-03 18:21 943K
20260503T12Z_MSC_CAPS_WindU_IsbL-0400_RLatLon0.03_PT048H.grib2 2026-05-03 18:21 952K
20260503T12Z_MSC_CAPS_WindU_IsbL-0450_RLatLon0.03_PT048H.grib2 2026-05-03 18:21 1.0M
20260503T12Z_MSC_CAPS_WindU_IsbL-0500_RLatLon0.03_PT048H.grib2 2026-05-03 18:21 1.0M
20260503T12Z_MSC_CAPS_WindU_IsbL-0550_RLatLon0.03_PT048H.grib2 2026-05-03 18:21 1.0M
20260503T12Z_MSC_CAPS_WindU_IsbL-0600_RLatLon0.03_PT048H.grib2 2026-05-03 18:21 1.0M
20260503T12Z_MSC_CAPS_WindU_IsbL-0650_RLatLon0.03_PT048H.grib2 2026-05-03 18:21 1.1M
20260503T12Z_MSC_CAPS_WindU_IsbL-0700_RLatLon0.03_PT048H.grib2 2026-05-03 18:21 1.1M
20260503T12Z_MSC_CAPS_WindU_IsbL-0750_RLatLon0.03_PT048H.grib2 2026-05-03 18:21 1.1M
20260503T12Z_MSC_CAPS_WindU_IsbL-0800_RLatLon0.03_PT048H.grib2 2026-05-03 18:21 1.2M
20260503T12Z_MSC_CAPS_WindU_IsbL-0850_RLatLon0.03_PT048H.grib2 2026-05-03 18:21 1.2M
20260503T12Z_MSC_CAPS_WindU_IsbL-0875_RLatLon0.03_PT048H.grib2 2026-05-03 18:21 1.3M
20260503T12Z_MSC_CAPS_WindU_IsbL-0900_RLatLon0.03_PT048H.grib2 2026-05-03 18:21 1.3M
20260503T12Z_MSC_CAPS_WindU_IsbL-0925_RLatLon0.03_PT048H.grib2 2026-05-03 18:21 1.4M
20260503T12Z_MSC_CAPS_WindU_IsbL-0950_RLatLon0.03_PT048H.grib2 2026-05-03 18:21 1.4M
20260503T12Z_MSC_CAPS_WindU_IsbL-0970_RLatLon0.03_PT048H.grib2 2026-05-03 18:21 1.8M
20260503T12Z_MSC_CAPS_WindU_IsbL-0985_RLatLon0.03_PT048H.grib2 2026-05-03 18:21 1.9M
20260503T12Z_MSC_CAPS_WindU_IsbL-1000_RLatLon0.03_PT048H.grib2 2026-05-03 18:21 1.9M
20260503T12Z_MSC_CAPS_WindU_IsbL-1015_RLatLon0.03_PT048H.grib2 2026-05-03 18:21 1.9M
20260503T12Z_MSC_CAPS_WindV_AGL-10m_RLatLon0.03_PT048H.grib2 2026-05-03 18:21 1.9M
20260503T12Z_MSC_CAPS_WindV_AGL-120m_RLatLon0.03_PT048H.grib2 2026-05-03 18:21 932K
20260503T12Z_MSC_CAPS_WindV_AGL-40m_RLatLon0.03_PT048H.grib2 2026-05-03 18:21 1.3M
20260503T12Z_MSC_CAPS_WindV_AGL-80m_RLatLon0.03_PT048H.grib2 2026-05-03 18:21 940K
20260503T12Z_MSC_CAPS_WindV_IsbL-0050_RLatLon0.03_PT048H.grib2 2026-05-03 18:21 769K
20260503T12Z_MSC_CAPS_WindV_IsbL-0100_RLatLon0.03_PT048H.grib2 2026-05-03 18:21 962K
20260503T12Z_MSC_CAPS_WindV_IsbL-0150_RLatLon0.03_PT048H.grib2 2026-05-03 18:21 705K
20260503T12Z_MSC_CAPS_WindV_IsbL-0175_RLatLon0.03_PT048H.grib2 2026-05-03 18:21 845K
20260503T12Z_MSC_CAPS_WindV_IsbL-0200_RLatLon0.03_PT048H.grib2 2026-05-03 18:21 865K
20260503T12Z_MSC_CAPS_WindV_IsbL-0225_RLatLon0.03_PT048H.grib2 2026-05-03 18:21 888K
20260503T12Z_MSC_CAPS_WindV_IsbL-0250_RLatLon0.03_PT048H.grib2 2026-05-03 18:21 905K
20260503T12Z_MSC_CAPS_WindV_IsbL-0275_RLatLon0.03_PT048H.grib2 2026-05-03 18:21 704K
20260503T12Z_MSC_CAPS_WindV_IsbL-0300_RLatLon0.03_PT048H.grib2 2026-05-03 18:21 715K
20260503T12Z_MSC_CAPS_WindV_IsbL-0350_RLatLon0.03_PT048H.grib2 2026-05-03 18:21 941K
20260503T12Z_MSC_CAPS_WindV_IsbL-0400_RLatLon0.03_PT048H.grib2 2026-05-03 18:21 949K
20260503T12Z_MSC_CAPS_WindV_IsbL-0450_RLatLon0.03_PT048H.grib2 2026-05-03 18:21 972K
20260503T12Z_MSC_CAPS_WindV_IsbL-0500_RLatLon0.03_PT048H.grib2 2026-05-03 18:21 1.0M
20260503T12Z_MSC_CAPS_WindV_IsbL-0550_RLatLon0.03_PT048H.grib2 2026-05-03 18:21 924K
20260503T12Z_MSC_CAPS_WindV_IsbL-0600_RLatLon0.03_PT048H.grib2 2026-05-03 18:21 948K
20260503T12Z_MSC_CAPS_WindV_IsbL-0650_RLatLon0.03_PT048H.grib2 2026-05-03 18:21 1.2M
20260503T12Z_MSC_CAPS_WindV_IsbL-0700_RLatLon0.03_PT048H.grib2 2026-05-03 18:21 1.3M
20260503T12Z_MSC_CAPS_WindV_IsbL-0750_RLatLon0.03_PT048H.grib2 2026-05-03 18:21 1.4M
20260503T12Z_MSC_CAPS_WindV_IsbL-0800_RLatLon0.03_PT048H.grib2 2026-05-03 18:21 1.2M
20260503T12Z_MSC_CAPS_WindV_IsbL-0850_RLatLon0.03_PT048H.grib2 2026-05-03 18:21 1.2M
20260503T12Z_MSC_CAPS_WindV_IsbL-0875_RLatLon0.03_PT048H.grib2 2026-05-03 18:21 1.3M
20260503T12Z_MSC_CAPS_WindV_IsbL-0900_RLatLon0.03_PT048H.grib2 2026-05-03 18:21 1.3M
20260503T12Z_MSC_CAPS_WindV_IsbL-0925_RLatLon0.03_PT048H.grib2 2026-05-03 18:21 1.4M
20260503T12Z_MSC_CAPS_WindV_IsbL-0950_RLatLon0.03_PT048H.grib2 2026-05-03 18:21 1.4M
20260503T12Z_MSC_CAPS_WindV_IsbL-0970_RLatLon0.03_PT048H.grib2 2026-05-03 18:21 1.5M
20260503T12Z_MSC_CAPS_WindV_IsbL-0985_RLatLon0.03_PT048H.grib2 2026-05-03 18:21 1.5M
20260503T12Z_MSC_CAPS_WindV_IsbL-1000_RLatLon0.03_PT048H.grib2 2026-05-03 18:21 1.9M
20260503T12Z_MSC_CAPS_WindV_IsbL-1015_RLatLon0.03_PT048H.grib2 2026-05-03 18:21 1.9M